| time (UTC) | temp F | wind direction | speed MPH | gust MPH | rain 1hr in | rain 24hr in | rain mn in | humidity % | barometer mb |
| 20260831014526 | 62 | 323 | 0.0 | 0.0 | 0.00 | 0.04 | 0.04 | 81 | 1019.0 |
| 20260831013019 | 62 | 323 | 0.0 | 1.0 | 0.00 | 0.04 | 0.04 | 81 | 1018.6 |
| 20260831011526 | 63 | 323 | 0.0 | 0.0 | 0.00 | 0.04 | 0.04 | 81 | 1018.6 |
| 20260831010017 | 63 | 323 | 0.0 | 0.0 | 0.01 | 0.04 | 0.04 | 81 | 1018.3 |
| 20260831004517 | 64 | 323 | 0.0 | 0.0 | 0.01 | 0.04 | 0.04 | 81 | 1018.3 |
| 20260831003018 | 64 | 323 | 0.0 | 0.0 | 0.02 | 0.04 | 0.04 | 81 | 1018.0 |
| 20260831001515 | 64 | 323 | 0.0 | 0.0 | 0.03 | 0.04 | 0.04 | 80 | 1018.1 |
| 20260831000015 | 65 | 323 | 0.0 | 0.0 | 0.02 | 0.03 | 0.03 | 79 | 1017.7 |
| 20260830234518 | 65 | 323 | 0.0 | 0.0 | 0.02 | 0.03 | 0.03 | 79 | 1017.5 |
| 20260830233014 | 65 | 323 | 0.0 | 0.0 | 0.01 | 0.02 | 0.02 | 78 | 1017.2 |
| 20260830231514 | 66 | 323 | 0.0 | 0.0 | 0.00 | 0.01 | 0.01 | 78 | 1016.9 |
| 20260830230013 | 66 | 323 | 0.0 | 0.0 | 0.00 | 0.01 | 0.01 | 77 | 1016.9 |
| 20260830224513 | 66 | 323 | 0.0 | 0.0 | 0.00 | 0.01 | 0.01 | 77 | 1016.8 |
| 20260830223013 | 67 | 323 | 0.0 | 0.0 | 0.00 | 0.01 | 0.01 | 76 | 1016.7 |
| 20260830221512 | 68 | 323 | 0.0 | 0.0 | 0.00 | 0.01 | 0.01 | 76 | 1016.7 |
| 20260830220012 | 68 | 323 | 0.0 | 0.0 | 0.00 | 0.01 | 0.01 | 75 | 1016.8 |
| 20260830214511 | 69 | 323 | 0.0 | 0.0 | 0.00 | 0.01 | 0.01 | 75 | 1016.8 |
| 20260830213016 | 69 | 323 | 0.0 | 0.0 | 0.00 | 0.01 | 0.01 | 74 | 1016.8 |
| 20260830211510 | 69 | 323 | 0.0 | 0.0 | 0.00 | 0.01 | 0.01 | 73 | 1016.7 |
| 20260830210008 | 69 | 323 | 0.0 | 0.0 | 0.00 | 0.01 | 0.01 | 74 | 1016.9 |
| 20260830204506 | 70 | 323 | 0.0 | 1.0 | 0.00 | 0.01 | 0.01 | 73 | 1017.1 |
| 20260830203006 | 71 | 323 | 0.0 | 2.0 | 0.00 | 0.01 | 0.01 | 73 | 1017.1 |
| 20260830201506 | 70 | 323 | 0.0 | 0.0 | 0.00 | 0.01 | 0.01 | 74 | 1017.2 |
| 20260830200010 | 70 | 323 | 0.0 | 0.0 | 0.00 | 0.01 | 0.01 | 74 | 1017.4 |
| 20260830194502 | 70 | 167 | 0.0 | 1.0 | 0.00 | 0.01 | 0.01 | 73 | 1017.6 |
| 20260830193000 | 71 | 167 | 0.0 | 0.0 | 0.00 | 0.01 | 0.01 | 73 | 1017.7 |
| 20260830191558 | 70 | 167 | 0.0 | 0.0 | 0.00 | 0.01 | 0.01 | 75 | 1017.8 |
| 20260830190125 | 69 | 167 | 0.0 | 0.0 | 0.00 | 0.01 | 0.01 | 75 | 1018.1 |
| 20260830184607 | 69 | 167 | 0.0 | 0.0 | 0.00 | 0.01 | 0.01 | 76 | 1018.3 |
| 20260830183059 | 68 | 188 | 0.0 | 0.0 | 0.00 | 0.01 | 0.01 | 77 | 1018.7 |
| 20260830181547 | 68 | 188 | 0.0 | 0.0 | 0.00 | 0.01 | 0.01 | 76 | 1018.7 |
| 20260830180045 | 67 | 188 | 0.0 | 0.0 | 0.00 | 0.01 | 0.01 | 77 | 1019.0 |
| 20260830174555 | 67 | 188 | 0.0 | 0.0 | 0.00 | 0.01 | 0.01 | 76 | 1019.1 |
| 20260830173040 | 66 | 188 | 0.0 | 0.0 | 0.00 | 0.01 | 0.01 | 77 | 1019.5 |
| 20260830171541 | 66 | 188 | 0.0 | 0.0 | 0.01 | 0.01 | 0.01 | 78 | 1019.6 |
| 20260830170038 | 65 | 188 | 0.0 | 0.0 | 0.01 | 0.01 | 0.01 | 78 | 1019.8 |
| 20260830164537 | 65 | 188 | 0.0 | 0.0 | 0.01 | 0.01 | 0.01 | 79 | 1019.9 |
| 20260830163038 | 65 | 188 | 0.0 | 0.0 | 0.01 | 0.01 | 0.01 | 78 | 1020.1 |
| 20260830161542 | 65 | 188 | 0.0 | 0.0 | 0.00 | 0.00 | 0.00 | 78 | 1020.1 |
| 20260830160041 | 65 | 188 | 0.0 | 0.0 | 0.00 | 0.00 | 0.00 | 77 | 1020.4 |
| 20260830154534 | 65 | 188 | 0.0 | 0.0 | 0.00 | 0.00 | 0.00 | 76 | 1019.7 |
| 20260830153032 | 66 | 188 | 0.0 | 2.0 | 0.00 | 0.00 | 0.00 | 75 | 1020.0 |
| 20260830151531 | 66 | 195 | 0.0 | 1.0 | 0.00 | 0.00 | 0.00 | 74 | 1020.4 |
| 20260830150032 | 66 | 195 | 0.0 | 0.0 | 0.00 | 0.00 | 0.00 | 74 | 1020.4 |
| 20260830144532 | 66 | 195 | 0.0 | 1.0 | 0.00 | 0.00 | 0.00 | 74 | 1020.2 |
| 20260830143029 | 66 | 195 | 0.0 | 3.0 | 0.00 | 0.00 | 0.00 | 73 | 1020.3 |
| 20260830141525 | 65 | 197 | 0.0 | 0.0 | 0.00 | 0.00 | 0.00 | 77 | 1020.3 |
| 20260830140025 | 64 | 197 | 0.0 | 1.0 | 0.00 | 0.00 | 0.00 | 77 | 1020.2 |
| 20260830134530 | 64 | 197 | 0.0 | 3.0 | 0.00 | 0.00 | 0.00 | 76 | 1020.1 |
| 20260830133017 | 62 | 67 | 0.0 | 1.0 | 0.00 | 0.00 | 0.00 | 78 | 1020.5 |
| 20260830131512 | 61 | 63 | 0.0 | 0.0 | 0.00 | 0.00 | 0.00 | 79 | 1020.4 |
| 20260830130009 | 60 | 63 | 0.0 | 1.0 | 0.00 | 0.00 | 0.00 | 81 | 1020.5 |
| 20260830124507 | 59 | 82 | 0.0 | 0.0 | 0.00 | 0.00 | 0.00 | 82 | 1020.6 |
| 20260830123003 | 58 | 82 | 0.0 | 0.0 | 0.00 | 0.00 | 0.00 | 82 | 1020.5 |
| 20260830121600 | 57 | 82 | 0.0 | 0.0 | 0.00 | 0.00 | 0.00 | 83 | 1020.6 |
| 20260830120059 | 56 | 82 | 0.0 | 0.0 | 0.00 | 0.00 | 0.00 | 83 | 1020.6 |
| 20260830114556 | 55 | 82 | 0.0 | 0.0 | 0.00 | 0.00 | 0.00 | 82 | 1020.8 |
| 20260830113049 | 54 | 82 | 0.0 | 0.0 | 0.00 | 0.00 | 0.00 | 83 | 1020.9 |
| 20260830111545 | 53 | 197 | 0.0 | 0.0 | 0.00 | 0.00 | 0.00 | 82 | 1020.9 |
| 20260830110043 | 53 | 197 | 0.0 | 0.0 | 0.00 | 0.00 | 0.00 | 82 | 1020.9 |
| 20260830104600 | 52 | 197 | 0.0 | 0.0 | 0.00 | 0.00 | 0.00 | 82 | 1020.9 |
| 20260830103038 | 52 | 197 | 0.0 | 0.0 | 0.00 | 0.00 | 0.00 | 82 | 1020.8 |
| 20260830101537 | 52 | 197 | 0.0 | 0.0 | 0.00 | 0.00 | 0.00 | 82 | 1021.0 |
| 20260830100037 | 52 | 197 | 0.0 | 0.0 | 0.00 | 0.00 | 0.00 | 82 | 1020.9 |
| 20260830094533 | 52 | 197 | 0.0 | 0.0 | 0.00 | 0.00 | 0.00 | 82 | 1020.9 |
| 20260830093039 | 52 | 197 | 0.0 | 0.0 | 0.00 | 0.00 | 0.00 | 82 | 1021.0 |
| 20260830091530 | 51 | 197 | 0.0 | 0.0 | 0.00 | 0.00 | 0.00 | 82 | 1021.1 |
| 20260830090030 | 51 | 197 | 0.0 | 0.0 | 0.00 | 0.00 | 0.00 | 82 | 1021.3 |
| 20260830084527 | 51 | 197 | 0.0 | 0.0 | 0.00 | 0.00 | 0.00 | 82 | 1021.2 |
| 20260830083043 | 51 | 197 | 0.0 | 0.0 | 0.00 | 0.00 | 0.00 | 82 | 1021.3 |
| 20260830081527 | 51 | 197 | 0.0 | 0.0 | 0.00 | 0.00 | 0.00 | 82 | 1021.3 |
| 20260830080026 | 51 | 197 | 0.0 | 0.0 | 0.00 | 0.00 | 0.00 | 82 | 1021.4 |
| 20260830074524 | 51 | 197 | 0.0 | 0.0 | 0.00 | 0.00 | 0.00 | 82 | 1021.5 |
| 20260830073024 | 51 | 197 | 0.0 | 0.0 | 0.00 | 0.00 | 0.00 | 82 | 1021.3 |
| 20260830071526 | 51 | 197 | 0.0 | 0.0 | 0.00 | 0.00 | 0.00 | 82 | 1021.4 |
| 20260830070023 | 51 | 197 | 0.0 | 0.0 | 0.00 | 0.00 | 0.00 | 82 | 1021.3 |
| 20260830064521 | 51 | 197 | 0.0 | 0.0 | 0.00 | 0.00 | 0.00 | 82 | 1021.3 |
| 20260830063020 | 51 | 197 | 0.0 | 0.0 | 0.00 | 0.00 | 0.00 | 82 | 1021.5 |
| 20260830061523 | 51 | 197 | 0.0 | 0.0 | 0.00 | 0.00 | 0.00 | 82 | 1021.6 |
| 20260830060020 | 51 | 197 | 0.0 | 0.0 | 0.00 | 0.00 | 0.00 | 82 | 1021.6 |
| 20260830054515 | 51 | 197 | 0.0 | 0.0 | 0.00 | 0.00 | 0.00 | 82 | 1021.8 |
| 20260830053024 | 51 | 197 | 0.0 | 0.0 | 0.00 | 0.00 | 0.00 | 82 | 1021.9 |
| 20260830051518 | 51 | 197 | 0.0 | 0.0 | 0.00 | 0.00 | 0.00 | 81 | 1021.9 |
| 20260830050012 | 51 | 197 | 0.0 | 0.0 | 0.00 | 0.00 | 0.00 | 82 | 1022.0 |
| 20260830044514 | 51 | 197 | 0.0 | 0.0 | 0.00 | 0.00 | 0.00 | 82 | 1022.1 |
| 20260830043015 | 51 | 197 | 0.0 | 0.0 | 0.00 | 0.00 | 0.00 | 81 | 1022.1 |
| 20260830041518 | 51 | 197 | 0.0 | 0.0 | 0.00 | 0.00 | 0.00 | 81 | 1022.0 |
| 20260830040006 | 51 | 197 | 0.0 | 0.0 | 0.00 | 0.00 | 0.00 | 80 | 1022.0 |
| 20260830034506 | 52 | 197 | 0.0 | 0.0 | 0.00 | 0.00 | 0.00 | 80 | 1022.1 |
| 20260830033005 | 52 | 197 | 0.0 | 0.0 | 0.00 | 0.00 | 0.00 | 80 | 1022.1 |
| 20260830031505 | 52 | 197 | 0.0 | 0.0 | 0.00 | 0.00 | 0.00 | 78 | 1022.1 |
| 20260830030005 | 53 | 197 | 0.0 | 0.0 | 0.00 | 0.00 | 0.00 | 78 | 1022.0 |
| 20260830023004 | 53 | 197 | 0.0 | 0.0 | 0.00 | 0.00 | 0.00 | 77 | 1022.0 |
| 20260830021504 | 54 | 197 | 0.0 | 0.0 | 0.00 | 0.00 | 0.00 | 74 | 1022.1 |
| 20260830020003 | 54 | 197 | 0.0 | 0.0 | 0.00 | 0.00 | 0.00 | 74 | 1021.9 |